Regional Weather Roundup
Issued by NWS Charleston, WV

Home | Current Version | Previous Version | Graphics & Text | Print | Product List | Glossary On
Versions: 1 2 3 4 5 6 7 8 9 10 11 12 13 14 15 16 17 18 19 20 21 22 23 24 25 26 27 28 29 30 31 32 33 34 35 36 37 38 39 40 41 42 43 44 45 46 47 48 49 50
000
ASUS41 KRLX 262010
RWRRLX
West Virginia Regional Weather Roundup
National Weather Service Charleston WV
400 PM EDT TUE MAY 26 2015

Note: "fair" indicates few or no clouds below 12,000 feet with no
significant weather and/or obstructions to visibility.

WVZ003-262100-
Northern Panhandle of West Virginia

CITY           SKY/WX    TMP DP  RH WIND       PRES   REMARKS
WHEELING       NOT AVBL
$$

WVZ009-262100-
Northwest West Virginia

CITY           SKY/WX    TMP DP  RH WIND       PRES   REMARKS
PARKERSBURG    MOSUNNY   83  66  56 S9G20     30.11F
$$

WVZ006-262100-
Western West Virginia

CITY           SKY/WX    TMP DP  RH WIND       PRES   REMARKS
HUNTINGTON     MOSUNNY   86  66  51 S8        30.06F
$$

WVZ015-262100-
West Central West Virginia

CITY           SKY/WX    TMP DP  RH WIND       PRES   REMARKS
CHARLESTON     PTSUNNY   87  63  44 SW13      30.09F
$$

WVZ022-031-262100-
North Central West Virginia

CITY           SKY/WX    TMP DP  RH WIND       PRES   REMARKS
CLARKSBURG     PTSUNNY   81  65  58 S7        30.14F
MORGANTOWN     PTSUNNY   81  60  48 VRB7      30.16F
$$

WVZ025-035-042-045-262100-
Southern West Virginia

CITY           SKY/WX    TMP DP  RH WIND       PRES   REMARKS
BECKLEY        PTSUNNY   77  62  59 SE12      30.22F
LOGAN          PTSUNNY   84  64  51 SE9G17    30.10F
BLUEFIELD      CLOUDY    77  63  61 S9        30.25F
LEWISBURG      LGT RAIN  74  66  76 SW6       30.25R
$$

WVZ047-262100-
Northern Mountains of West Virginia

CITY           SKY/WX    TMP DP  RH WIND       PRES   REMARKS
ELKINS         CLOUDY    75  67  76 N5        30.20F
$$

WVZ052-262100-
Eastern Panhandle of West Virginia

CITY           SKY/WX    TMP DP  RH WIND       PRES   REMARKS
MARTINSBURG    CLOUDY    82  65  56 S6        30.17F
PETERSBURG     PTSUNNY   82  60  46 CALM      30.17F
$$


USA.gov is the U.S. government's official web portal to all federal, state and local government web resources and services.